Location: Powder Track
(41.8531°N, 72.3584°W)
Time: 00:28:37
(UTC+00:00)

Vanguard 1 Rocket - Pass Details

Date: 14 August 2021
Orbit: 650 x 4226 km, 34.3° (Epoch: 19 September)

Event Time Altitude Azimuth Distance (km) Brightness Sun altitude
Rises 12:34:53 0° 249° (WSW) 8,253 11.8 28.1°
Reaches altitude 10° 12:40:27 10° 248° (WSW) 7,372 11.6 29.1°
Maximum altitude 13:06:23 68° 172° (S) 3,902 11.3 33.9°
Drops below altitude 10° 13:23:43 10° 95° (E) 5,249 12.5 37.0°
Sets 13:26:54 0° 93° (E) 5,886 12.4 37.6°
